lat,lon,time
37.51295,-110.7323,2016-10-04 14:18:03
37.51027,-110.73235,2016-10-04 14:27:15
37.50529,-110.73126,2016-10-04 14:37:15
37.50056,-110.73024,2016-10-04 14:47:05
37.49599,-110.72868,2016-10-04 14:57:02
37.49127,-110.72745,2016-10-04 15:07:00
37.48631,-110.72614,2016-10-04 15:17:37
37.48195,-110.72537,2016-10-04 15:26:56
37.47754,-110.72517,2016-10-04 15:37:00
37.47309,-110.7245,2016-10-04 15:47:00
37.46832,-110.72519,2016-10-04 15:57:00
37.46556,-110.72858,2016-10-04 16:06:49
37.46322,-110.73317,2016-10-04 16:17:11
37.46102,-110.73755,2016-10-04 16:26:43
37.45852,-110.74156,2016-10-04 16:36:51
37.45433,-110.74025,2016-10-04 16:46:53
37.45031,-110.73792,2016-10-04 16:56:42
37.44653,-110.73506,2016-10-04 17:06:41
37.44249,-110.73219,2016-10-04 17:17:12
37.43968,-110.72862,2016-10-04 17:26:38
37.43858,-110.72322,2016-10-04 17:36:46
37.43768,-110.71764,2016-10-04 17:46:36
37.4372,-110.71202,2016-10-04 17:56:43
37.43596,-110.707,2016-10-04 18:06:45
37.43217,-110.70375,2016-10-04 18:17:23
37.42799,-110.70441,2016-10-04 18:26:40
37.42391,-110.7061,2016-10-04 18:36:40
37.41963,-110.70809,2016-10-04 18:46:53
37.41478,-110.70955,2016-10-04 18:58:00
37.41135,-110.71144,2016-10-04 19:06:53
37.40729,-110.71378,2016-10-04 19:16:42
37.40358,-110.71661,2016-10-04 19:26:16
37.40253,-110.72147,2016-10-04 19:36:14
37.40356,-110.7274,2016-10-04 19:46:20
37.40477,-110.73331,2016-10-04 19:56:19
37.40566,-110.73927,2016-10-04 20:06:16
37.40568,-110.74532,2016-10-04 20:16:54
37.40195,-110.74767,2016-10-04 20:26:20
37.39769,-110.74704,2016-10-04 20:36:24
37.39374,-110.74571,2016-10-04 20:46:17
37.39005,-110.74281,2016-10-04 20:56:15
37.38695,-110.73925,2016-10-04 21:07:06
37.38304,-110.73659,2016-10-04 21:17:06
37.38024,-110.73386,2016-10-04 21:26:06
37.37723,-110.73035,2016-10-04 21:36:06
37.37352,-110.72749,2016-10-04 21:45:58
37.36957,-110.72843,2016-10-04 21:55:58
37.36618,-110.7292,2016-10-04 22:05:58
37.36235,-110.73068,2016-10-04 22:16:29
37.35905,-110.73212,2016-10-04 22:25:51
37.35556,-110.73389,2016-10-04 22:35:55
37.35154,-110.73521,2016-10-04 22:45:52
37.3483,-110.73839,2016-10-04 22:55:52
37.34915,-110.74304,2016-10-04 23:05:50
37.34971,-110.74863,2016-10-04 23:16:12
37.34757,-110.75189,2016-10-04 23:25:49
37.34474,-110.75482,2016-10-04 23:35:48
37.34149,-110.75798,2016-10-04 23:45:55
37.33808,-110.76056,2016-10-04 23:55:53
37.3354,-110.76369,2016-10-05 00:05:49
37.33302,-110.76785,2016-10-05 00:16:07
37.33086,-110.77176,2016-10-05 00:25:44
37.32891,-110.77536,2016-10-05 00:35:41
37.3273,-110.77991,2016-10-05 00:45:31
37.326,-110.78476,2016-10-05 00:55:58
37.32533,-110.78877,2016-10-05 01:05:36
37.32434,-110.79417,2016-10-05 01:16:09
37.32397,-110.79927,2016-10-05 01:25:27
37.32434,-110.80339,2016-10-05 01:35:30
37.32696,-110.80844,2016-10-05 01:45:27
37.32901,-110.81375,2016-10-05 01:55:27
37.33074,-110.81856,2016-10-05 02:05:27
37.33295,-110.8233,2016-10-05 02:15:59
37.33434,-110.82771,2016-10-05 02:25:23
37.33565,-110.83055,2016-10-05 02:35:19
37.33781,-110.83488,2016-10-05 02:45:14
37.33995,-110.83937,2016-10-05 02:55:15
37.34207,-110.84291,2016-10-05 03:05:09
37.34435,-110.84741,2016-10-05 03:15:06
37.34632,-110.85153,2016-10-05 03:25:06
37.34799,-110.8555,2016-10-05 03:35:06
37.34901,-110.86541,2016-10-05 03:55:30
37.34729,-110.86944,2016-10-05 04:05:30
37.3436,-110.87201,2016-10-05 04:15:30
37.33976,-110.87248,2016-10-05 04:24:54
37.33651,-110.87177,2016-10-05 04:34:52
37.33272,-110.86952,2016-10-05 04:44:50
37.32942,-110.86627,2016-10-05 04:54:52
37.32719,-110.86267,2016-10-05 05:04:52
37.32575,-110.85771,2016-10-05 05:15:10
37.32421,-110.85313,2016-10-05 05:24:35
37.32316,-110.84897,2016-10-05 05:34:39
37.32082,-110.8448,2016-10-05 05:44:35
37.31764,-110.84138,2016-10-05 05:54:31
37.31455,-110.83975,2016-10-05 06:04:31
37.31023,-110.839,2016-10-05 06:15:02
37.30615,-110.8389,2016-10-05 06:24:23
37.30267,-110.83899,2016-10-05 06:34:23
37.29892,-110.84102,2016-10-05 06:44:20
37.29577,-110.84439,2016-10-05 06:54:18
37.29365,-110.84793,2016-10-05 07:04:14
37.2922,-110.85283,2016-10-05 07:14:42
37.29116,-110.85728,2016-10-05 07:24:14
37.28997,-110.86113,2016-10-05 07:34:14
37.28863,-110.86578,2016-10-05 07:44:11
37.28614,-110.87007,2016-10-05 07:54:11
37.28316,-110.87158,2016-10-05 08:04:09
37.2788,-110.87128,2016-10-05 08:14:30
37.27473,-110.87007,2016-10-05 08:24:05
37.2716,-110.86763,2016-10-05 08:34:01
37.26795,-110.86531,2016-10-05 08:44:01
37.26454,-110.86272,2016-10-05 08:54:00
37.2613,-110.86272,2016-10-05 09:04:29
37.25881,-110.86641,2016-10-05 09:14:29
37.25665,-110.8709,2016-10-05 09:24:02
37.25472,-110.87531,2016-10-05 09:33:59
37.25234,-110.88014,2016-10-05 09:44:00
37.24875,-110.882,2016-10-05 09:53:59
37.24493,-110.88145,2016-10-05 10:04:31
37.24051,-110.88051,2016-10-05 10:14:31
37.23655,-110.87941,2016-10-05 10:24:01
37.23344,-110.87794,2016-10-05 10:33:57
37.22932,-110.87696,2016-10-05 10:43:58
37.2255,-110.87893,2016-10-05 10:53:58
37.22331,-110.88228,2016-10-05 11:03:58
37.22172,-110.88708,2016-10-05 11:14:30
37.22016,-110.89124,2016-10-05 11:23:50
37.21824,-110.89409,2016-10-05 11:33:46
37.21476,-110.89622,2016-10-05 11:43:46
37.21098,-110.8951,2016-10-05 11:53:46
37.20803,-110.89255,2016-10-05 12:03:46
37.20417,-110.89155,2016-10-05 12:13:45
37.20074,-110.89018,2016-10-05 12:23:45
37.19774,-110.89102,2016-10-05 12:33:43
37.19407,-110.89305,2016-10-05 12:43:41
37.19025,-110.89453,2016-10-05 12:53:40
37.18712,-110.8963,2016-10-05 13:03:38
37.18313,-110.89853,2016-10-05 13:14:01
37.17903,-110.9024,2016-10-05 13:23:27
37.17791,-110.90433,2016-10-05 13:33:25
37.17723,-110.90916,2016-10-05 13:43:22
37.17705,-110.91402,2016-10-05 13:53:20
37.17692,-110.91827,2016-10-05 14:03:17
37.17422,-110.92168,2016-10-05 14:13:41
37.15112,-110.93908,2016-10-05 15:41:29
37.15035,-110.94286,2016-10-05 15:51:29
37.14929,-110.94649,2016-10-05 16:01:30
37.14602,-110.94781,2016-10-05 16:11:25
37.14257,-110.94844,2016-10-05 16:21:23
37.13953,-110.95001,2016-10-05 16:31:21
37.13638,-110.95134,2016-10-05 16:41:59
37.13345,-110.95273,2016-10-05 16:51:19
37.13042,-110.95474,2016-10-05 17:01:16
37.12815,-110.95757,2016-10-05 17:11:16
37.12724,-110.96225,2016-10-05 17:21:14
37.12727,-110.96642,2016-10-05 17:31:16
37.12702,-110.97,2016-10-05 17:41:29
37.12667,-110.97418,2016-10-05 17:51:12
37.12515,-110.97806,2016-10-05 18:01:13
37.12181,-110.9783,2016-10-05 18:11:15
37.11842,-110.98013,2016-10-05 18:21:08
37.11547,-110.98268,2016-10-05 18:31:06
37.11434,-110.98642,2016-10-05 18:41:06
37.11455,-110.99063,2016-10-05 18:51:06
37.11449,-110.99451,2016-10-05 19:01:03
37.11293,-111.01518,2016-10-05 20:00:52
37.11224,-111.01844,2016-10-05 20:10:52
37.11112,-111.0217,2016-10-05 20:20:52
37.11047,-111.0247,2016-10-05 20:30:50
37.10991,-111.02757,2016-10-05 20:41:13
37.109,-111.03107,2016-10-05 20:50:46
37.10812,-111.03439,2016-10-05 21:00:46
37.1072,-111.03687,2016-10-05 21:10:39
37.10611,-111.04015,2016-10-05 21:20:35
37.10526,-111.04364,2016-10-05 21:30:32
37.10436,-111.04617,2016-10-05 21:41:01
37.10364,-111.04942,2016-10-05 21:50:28
37.10306,-111.05267,2016-10-05 22:00:21
37.10257,-111.05441,2016-10-05 22:10:19
37.10219,-111.058,2016-10-05 22:20:17
37.10228,-111.06146,2016-10-05 22:30:16
37.10214,-111.06395,2016-10-05 22:40:41
37.10214,-111.06761,2016-10-05 22:50:18
37.10209,-111.07137,2016-10-05 23:00:10
37.10215,-111.07407,2016-10-05 23:10:09
37.10257,-111.07802,2016-10-05 23:20:13
37.10255,-111.08202,2016-10-05 23:30:11
37.10278,-111.08524,2016-10-05 23:40:31
37.10335,-111.08983,2016-10-05 23:50:06
37.10404,-111.09431,2016-10-06 00:00:01
37.10397,-111.09697,2016-10-06 00:10:02
37.1039,-111.10165,2016-10-06 00:19:57
37.10416,-111.10623,2016-10-06 00:29:55
37.10378,-111.10901,2016-10-06 00:40:29
37.10308,-111.11328,2016-10-06 00:49:52
37.10223,-111.11761,2016-10-06 00:59:51
37.1019,-111.1208,2016-10-06 01:09:52
37.10102,-111.12506,2016-10-06 01:19:50
37.09809,-111.12766,2016-10-06 01:29:49
37.09649,-111.13116,2016-10-06 01:40:36
37.0952,-111.13472,2016-10-06 01:49:38
37.09383,-111.13896,2016-10-06 01:59:39
37.09361,-111.14235,2016-10-06 02:09:37
37.09174,-111.1436,2016-10-06 02:19:28
37.09271,-111.14673,2016-10-06 02:29:27
37.09434,-111.14969,2016-10-06 02:40:01
37.09525,-111.15269,2016-10-06 02:49:25
37.09694,-111.15466,2016-10-06 02:59:22
37.09852,-111.15749,2016-10-06 03:09:22
37.09998,-111.16063,2016-10-06 03:19:23
37.10081,-111.16331,2016-10-06 03:29:23
37.10194,-111.16632,2016-10-06 03:39:58
37.10288,-111.16887,2016-10-06 03:49:22
37.10091,-111.17181,2016-10-06 03:59:19
37.09865,-111.17476,2016-10-06 04:09:17
37.09599,-111.17706,2016-10-06 04:19:08
37.09333,-111.17912,2016-10-06 04:29:08
37.09096,-111.18069,2016-10-06 04:39:29
37.08852,-111.18314,2016-10-06 04:49:20
37.08664,-111.18613,2016-10-06 04:59:02
37.08455,-111.1886,2016-10-06 05:08:56
37.08237,-111.19182,2016-10-06 05:18:48
37.07988,-111.19431,2016-10-06 05:28:48
37.078,-111.19579,2016-10-06 05:39:25
37.07324,-111.20284,2016-10-06 05:58:28
37.07079,-111.20615,2016-10-06 06:08:31
37.06753,-111.20894,2016-10-06 06:18:28
37.06447,-111.21243,2016-10-06 06:28:22
37.06293,-111.21381,2016-10-06 06:39:01
37.06102,-111.21681,2016-10-06 06:48:15
37.05933,-111.22021,2016-10-06 06:58:15
37.05984,-111.22336,2016-10-06 07:08:09
37.05923,-111.22729,2016-10-06 07:18:06
37.05894,-111.23109,2016-10-06 07:28:03
37.05877,-111.23436,2016-10-06 07:38:31
37.05614,-111.23572,2016-10-06 07:48:00
37.05279,-111.23502,2016-10-06 07:58:00
37.0503,-111.23468,2016-10-06 08:08:00
37.04682,-111.23424,2016-10-06 08:17:56
37.04343,-111.23395,2016-10-06 08:27:54
37.04074,-111.23486,2016-10-06 08:38:28
37.0375,-111.23619,2016-10-06 08:47:49
37.03505,-111.23868,2016-10-06 08:57:49
37.03381,-111.24091,2016-10-06 09:07:49
37.03172,-111.24387,2016-10-06 09:17:48
37.02944,-111.24649,2016-10-06 09:27:44
37.03015,-111.24776,2016-10-06 09:38:14
37.03182,-111.24974,2016-10-06 09:47:43
37.04446,-111.26611,2016-10-06 10:43:30
37.04633,-111.26622,2016-10-06 10:52:56
37.04733,-111.26683,2016-10-06 11:02:57
37.04933,-111.26897,2016-10-06 11:12:56
37.05161,-111.2785,2016-10-06 11:32:35
37.05264,-111.28717,2016-10-06 11:42:35
37.04972,-111.28108,2016-10-06 11:52:35
37.04036,-111.29067,2016-10-06 13:12:23
37.03843,-111.29385,2016-10-06 13:22:23
37.03736,-111.29651,2016-10-06 13:32:23
37.03488,-111.29987,2016-10-06 13:43:00
37.03043,-111.30423,2016-10-06 14:02:19
37.02837,-111.30543,2016-10-06 14:12:19
37.02597,-111.30775,2016-10-06 14:22:19
37.02507,-111.3091,2016-10-06 14:32:16
37.02326,-111.31279,2016-10-06 14:42:30
37.02279,-111.3167,2016-10-06 14:52:09
37.0228,-111.31946,2016-10-06 15:02:06
37.02188,-111.3233,2016-10-06 15:12:04
37.02062,-111.32722,2016-10-06 15:22:03
37.01972,-111.33052,2016-10-06 15:32:02
37.0183,-111.33376,2016-10-06 15:42:31
37.01213,-111.34596,2016-10-06 16:23:19
37.01093,-111.3485,2016-10-06 16:33:09
37.0091,-111.35165,2016-10-06 16:43:30
37.00723,-111.35472,2016-10-06 16:52:57
37.00583,-111.35774,2016-10-06 17:02:53
37.00458,-111.36201,2016-10-06 17:12:51
37.00398,-111.36646,2016-10-06 17:22:48
37.0037,-111.36935,2016-10-06 17:32:48
37.00359,-111.3737,2016-10-06 17:43:11
37.0038,-111.37746,2016-10-06 17:52:43
37.00413,-111.37999,2016-10-06 18:02:52
37.00406,-111.38414,2016-10-06 18:12:48
37.00441,-111.38817,2016-10-06 18:22:38
37.00463,-111.39165,2016-10-06 18:32:34
37.00517,-111.39583,2016-10-06 18:42:27
37.00504,-111.39969,2016-10-06 18:52:27
37.00533,-111.40257,2016-10-06 19:02:24
37.00529,-111.40681,2016-10-06 19:12:14
37.00525,-111.4111,2016-10-06 19:22:14
37.0065,-111.41446,2016-10-06 19:32:16
37.00986,-111.41747,2016-10-06 19:42:29
37.01425,-111.41927,2016-10-06 19:52:10
37.01717,-111.41978,2016-10-06 20:02:06
37.01931,-111.42403,2016-10-06 20:12:03
37.01976,-111.42982,2016-10-06 20:21:59
37.02049,-111.43613,2016-10-06 20:31:55
37.01662,-111.43991,2016-10-06 20:42:29
37.01311,-111.44357,2016-10-06 20:51:51
37.01042,-111.44768,2016-10-06 21:01:49
37.00851,-111.45271,2016-10-06 21:11:48
37.00751,-111.45847,2016-10-06 21:21:46
37.00591,-111.4622,2016-10-06 21:31:44
37.00356,-111.46513,2016-10-06 21:42:00
37.00116,-111.46887,2016-10-06 21:51:38
36.99893,-111.47289,2016-10-06 22:01:34
36.99707,-111.47743,2016-10-06 22:11:30
36.99533,-111.48166,2016-10-06 22:21:26
36.994620,-111.483273,2016-10-06 22:26:36
